Location: Lombard
(41.8800°N, 88.0080°W)
Time: 23:20:19
(UTC-05:00)

Tiros 1 - Pass Details

Date: 01 February 2023
Orbit: 628 x 662 km, 48.4° (Epoch: 20 March)

Event Time Altitude Azimuth Distance (km) Brightness Sun altitude
Rises 00:14:00 0° 215° (SW) 2,896 - -65.2°
Reaches altitude 10° 00:16:26 10° 206° (SSW) 1,994 - -65.2°
Maximum altitude 00:20:38 36° 140° (SE) 1,001 - -65.1°
Drops below altitude 10° 00:24:52 10° 74° (ENE) 2,016 - -64.9°
Sets 00:27:20 0° 66° (ENE) 2,933 - -64.8°
